EW6205 Weather Reports


time (UTC)temp
F
wind
direction
speed
knots
gust
knots
rain 1hr
in
rain 24hr
in
rain mn
in
humidity
%
barometer
mb
20260906212705 90 319 0.0 1.7 0.00 0.00 0.00 42 1008.0
20260906212207 91 321 0.0 0.9 0.00 0.00 0.00 41 1008.0
20260906211705 90 341 0.0 4.3 0.00 0.00 0.00 42 1008.1
20260906210706 89 351 0.9 5.2 0.00 0.00 0.00 42 1008.1
20260906210205 89 331 0.0 5.2 0.00 0.00 0.00 42 1008.2
20260906205705 89 195 0.0 6.1 0.00 0.00 0.00 45 1008.2
20260906204705 88 317 0.9 5.2 0.00 0.00 0.00 46 1008.2
20260906204206 88 297 0.9 4.3 0.00 0.00 0.00 47 1008.2
20260906203706 87 276 0.9 5.2 0.00 0.00 0.00 47 1008.2
20260906203205 87 326 0.9 6.1 0.00 0.00 0.00 48 1008.3
20260906202706 87 312 1.7 6.1 0.00 0.00 0.00 48 1008.4
20260906202207 88 314 0.9 2.6 0.00 0.00 0.00 47 1008.4
20260906201705 88 304 0.0 2.6 0.00 0.00 0.00 48 1008.5
20260906201205 87 204 0.0 3.5 0.00 0.00 0.00 49 1008.6
20260906200707 87 310 0.9 5.2 0.00 0.00 0.00 50 1008.5
20260906200205 87 222 0.9 11.3 0.00 0.00 0.00 51 1008.7
20260906195705 87 208 0.9 11.3 0.00 0.00 0.00 50 1008.8
20260906194705 87 328 0.0 4.3 0.00 0.00 0.00 50 1009.0
20260906193706 86 207 0.9 9.6 0.00 0.00 0.00 52 1009.1
20260906193205 86 245 1.7 9.6 0.00 0.00 0.00 55 1009.2
20260906192705 85 252 1.7 9.6 0.00 0.00 0.00 55 1009.2
20260906190706 84 346 1.7 7.8 0.00 0.00 0.00 60 1009.2
20260906190205 84 217 1.7 7.8 0.00 0.00 0.00 60 1009.3
20260906185205 85 162 0.9 7.8 0.00 0.00 0.00 58 1009.1
20260906184706 85 255 0.9 5.2 0.00 0.00 0.00 58 1009.0
20260906184205 85 238 0.9 5.2 0.00 0.00 0.00 59 1008.8
20260906183705 84 297 0.9 5.2 0.00 0.00 0.00 59 1009.0
20260906183206 84 176 0.9 5.2 0.00 0.00 0.00 57 1009.0
20260906182705 84 125 0.9 4.3 0.00 0.00 0.00 57 1009.0
20260906181707 83 219 0.9 2.6 0.00 0.00 0.00 56 1009.1
20260906181205 83 134 0.0 2.6 0.00 0.00 0.00 56 1009.1
20260906180705 84 165 0.0 4.3 0.00 0.00 0.00 57 1009.2
20260906175705 83 203 0.0 4.3 0.00 0.00 0.00 57 1009.4
20260906175206 83 170 0.0 5.2 0.00 0.00 0.00 56 1009.3
20260906174705 83 160 0.9 5.2 0.00 0.00 0.00 56 1009.2
20260906174207 82 127 0.9 5.2 0.00 0.00 0.00 57 1009.1
20260906173705 81 105 0.0 2.6 0.00 0.00 0.00 57 1009.1
20260906173205 81 173 0.0 2.6 0.00 0.00 0.00 61 1009.1
20260906172706 80 77 0.0 2.6 0.00 0.00 0.00 65 1009.0
20260906172205 79 4 0.0 2.6 0.00 0.00 0.00 68 1009.1
20260906171704 79 316 0.0 4.3 0.00 0.00 0.00 68 1009.3
20260906171206 78 71 0.0 5.2 0.00 0.00 0.00 75 1009.3
20260906170705 77 25 0.9 5.2 0.00 0.00 0.00 77 1009.4
20260906170205 76 314 0.9 4.3 0.00 0.00 0.00 78 1009.4
20260906165706 76 328 0.9 4.3 0.00 0.00 0.00 79 1009.4
20260906165205 75 314 0.0 6.1 0.00 0.00 0.00 79 1009.5
20260906164705 75 318 0.9 6.1 0.00 0.00 0.00 79 1009.9
20260906164206 75 322 1.7 6.1 0.00 0.00 0.00 79 1009.7
20260906163705 75 335 0.9 6.1 0.00 0.00 0.00 79 1009.8
20260906163205 75 307 1.7 6.1 0.00 0.00 0.00 79 1009.8
20260906162707 75 312 1.7 6.1 0.00 0.00 0.00 79 1009.8
20260906162205 75 327 1.7 4.3 0.00 0.00 0.00 79 1010.2
20260906161705 75 324 0.9 0.9 0.00 0.00 0.00 80 1010.0
20260906160705 74 301 0.0 2.6 0.00 0.00 0.00 82 1009.9
20260906160205 74 70 0.0 3.5 0.00 0.00 0.00 82 1009.7
20260906155707 74 73 0.9 3.5 0.00 0.00 0.00 82 1009.3
20260906155204 74 322 0.0 2.6 0.00 0.00 0.00 82 1009.2
20260906154705 74 355 0.0 2.6 0.00 0.00 0.00 84 1009.1
20260906154206 73 50 0.0 2.6 0.00 0.00 0.00 84 1009.4
20260906153705 73 81 0.0 3.5 0.00 0.00 0.00 85 1009.7
20260906153205 72 316 0.0 3.5 0.00 0.00 0.00 86 1010.0
20260906151705 72 323 0.0 0.9 0.00 0.00 0.00 86 1010.3
20260906150705 72 67 0.0 3.5 0.00 0.00 0.00 86 1010.2
20260906145707 70 322 0.0 3.5 0.00 0.00 0.00 88 1011.1
20260906145205 70 334 0.0 3.5 0.00 0.00 0.00 89 1011.1
20260906144706 69 335 0.9 3.5 0.00 0.00 0.00 90 1011.2
20260906144205 69 313 1.7 3.5 0.00 0.00 0.00 90 1011.3
20260906143705 69 326 0.9 1.7 0.00 0.00 0.00 89 1011.6
20260906143206 69 345 0.0 0.9 0.00 0.00 0.00 91 1011.6
20260906142705 69 345 0.0 0.9 0.00 0.00 0.00 91 1011.9
20260906142205 68 345 0.0 1.7 0.00 0.00 0.00 91 1012.3
20260906141204 68 345 0.9 1.7 0.00 0.00 0.00 91 1012.0
20260906140705 68 346 0.0 1.7 0.00 0.00 0.00 91 1011.9
20260906140207 68 349 0.0 0.0 0.00 0.00 0.00 91 1011.8
20260906135705 67 349 0.0 0.0 0.00 0.00 0.00 91 1011.7
20260906135205 67 349 0.0 0.0 0.00 0.00 0.00 91 1011.7
20260906134707 67 349 0.0 0.0 0.00 0.00 0.00 91 1011.6
20260906134205 67 349 0.0 0.9 0.00 0.00 0.00 91 1011.3
20260906133705 67 349 0.0 1.7 0.00 0.00 0.00 91 1011.5
20260906132705 67 349 0.0 1.7 0.00 0.00 0.00 92 1011.1
20260906131707 67 320 0.0 1.7 0.00 0.00 0.00 92 1010.9
20260906131205 67 321 0.0 1.7 0.00 0.00 0.00 92 1010.7
20260906130705 66 321 0.0 1.7 0.00 0.00 0.00 92 1010.7
20260906130206 66 321 0.0 1.7 0.00 0.00 0.00 92 1010.7
20260906125205 66 321 0.0 0.0 0.00 0.00 0.00 92 1011.0
20260906124706 66 321 0.0 0.0 0.00 0.00 0.00 92 1011.1
20260906124205 66 321 0.0 0.0 0.00 0.00 0.00 92 1011.2
20260906123206 65 321 0.0 0.0 0.00 0.00 0.00 92 1011.1
20260906122705 65 321 0.0 0.9 0.00 0.00 0.00 93 1011.2
20260906122205 65 321 0.0 0.9 0.00 0.00 0.00 92 1011.3
20260906121706 65 321 0.0 0.9 0.00 0.00 0.00 92 1011.4
20260906120705 65 321 0.0 0.9 0.00 0.00 0.00 92 1011.3
20260906120206 65 321 0.0 0.9 0.00 0.00 0.00 92 1011.1
20260906115705 65 321 0.0 0.0 0.00 0.00 0.00 92 1011.3
20260906115204 66 321 0.0 0.0 0.00 0.00 0.00 92 1011.1
20260906114206 66 321 0.0 0.0 0.00 0.00 0.00 92 1010.7
20260906113705 66 321 0.0 0.0 0.00 0.00 0.00 92 1010.6
20260906113206 66 321 0.0 0.0 0.00 0.00 0.00 92 1010.6
20260906112705 66 321 0.0 0.0 0.00 0.00 0.00 92 1010.6
20260906112207 66 321 0.0 0.0 0.00 0.00 0.00 92 1010.6
20260906110707 66 321 0.0 0.9 0.00 0.00 0.00 91 1010.7
20260906110205 66 321 0.0 0.9 0.00 0.00 0.00 91 1010.7
20260906105206 66 321 0.0 0.0 0.00 0.00 0.00 91 1010.9
20260906104705 66 321 0.0 1.7 0.00 0.00 0.00 91 1010.7
20260906104205 66 321 0.0 1.7 0.00 0.00 0.00 91 1010.6
20260906103706 66 321 0.0 1.7 0.00 0.00 0.00 91 1010.6
20260906103204 67 320 0.0 3.5 0.00 0.00 0.00 91 1010.7
20260906102705 67 320 0.0 3.5 0.00 0.00 0.00 91 1010.6
20260906102207 67 321 0.0 3.5 0.00 0.00 0.00 91 1010.6
20260906101705 67 321 0.0 0.9 0.00 0.00 0.00 91 1010.6
20260906101206 67 320 0.0 3.5 0.00 0.00 0.00 91 1010.5
20260906100705 67 320 0.0 3.5 0.00 0.00 0.00 90 1010.5
20260906100205 67 321 0.0 2.6 0.00 0.00 0.00 90 1010.5
20260906095706 67 323 0.0 2.6 0.00 0.00 0.00 90 1010.5
20260906095205 67 324 0.0 2.6 0.00 0.00 0.00 90 1010.5
20260906094705 67 325 0.0 2.6 0.00 0.00 0.00 90 1010.5
20260906094206 67 323 0.0 1.7 0.00 0.00 0.00 90 1010.6
20260906093705 67 324 0.0 0.9 0.00 0.00 0.00 90 1010.5
20260906093205 67 328 0.0 0.9 0.00 0.00 0.00 90 1010.5
20260906092706 67 328 0.0 1.7 0.00 0.00 0.00 90 1010.6
20260906092205 67 328 0.0 1.7 0.00 0.00 0.00 90 1010.6
20260906091705 67 328 0.0 1.7 0.00 0.00 0.00 89 1010.7
20260906091206 68 325 0.0 0.0 0.00 0.00 0.00 89 1010.7
20260906085706 68 328 0.0 1.7 0.00 0.00 0.00 89 1010.6
20260906085205 68 325 0.0 0.9 0.00 0.00 0.00 89 1010.7
20260906084706 68 321 0.0 1.7 0.00 0.00 0.00 89 1010.7
20260906084205 68 320 0.0 6.1 0.00 0.00 0.00 89 1010.7
20260906083206 69 322 0.9 6.1 0.00 0.00 0.00 88 1010.9
20260906082705 69 314 0.0 1.7 0.00 0.00 0.00 88 1010.7
20260906082205 69 308 0.0 2.6 0.00 0.00 0.00 88 1010.7
20260906081706 69 14 0.0 2.6 0.00 0.00 0.00 88 1010.7
20260906081205 69 320 0.0 2.6 0.00 0.00 0.00 88 1010.9
20260906080705 69 321 0.0 2.6 0.00 0.00 0.00 88 1010.9
20260906080206 69 313 0.0 2.6 0.00 0.00 0.00 88 1010.9
20260906075705 69 319 0.0 1.7 0.00 0.00 0.00 88 1011.0
20260906075205 69 318 0.0 1.7 0.00 0.00 0.00 88 1010.9
20260906074706 69 319 0.0 1.7 0.00 0.00 0.00 87 1011.0
20260906074205 69 319 0.0 1.7 0.00 0.00 0.00 87 1011.1
20260906073705 69 319 0.0 1.7 0.00 0.00 0.00 87 1011.2
20260906073206 70 319 0.0 0.0 0.00 0.00 0.00 87 1011.4
20260906072705 70 319 0.0 0.0 0.00 0.00 0.00 87 1011.1
20260906072205 70 321 0.0 1.7 0.00 0.00 0.00 86 1011.1
20260906071706 70 319 0.0 1.7 0.00 0.00 0.00 86 1011.1
20260906071205 70 319 0.0 1.7 0.00 0.00 0.00 86 1011.1
20260906070705 70 321 0.0 1.7 0.00 0.00 0.00 86 1011.2
20260906070206 70 324 0.0 2.6 0.00 0.00 0.00 86 1011.3
20260906065205 71 328 0.0 3.5 0.00 0.00 0.00 86 1011.5
20260906064707 71 319 0.0 3.5 0.00 0.00 0.00 85 1011.4
20260906064205 71 326 0.0 2.6 0.00 0.00 0.00 85 1011.5
20260906063207 71 318 0.0 2.6 0.00 0.00 0.00 85 1011.4
20260906062705 71 321 0.0 2.6 0.00 0.00 0.00 85 1011.4
20260906062204 71 23 0.0 3.5 0.00 0.00 0.00 84 1011.5
20260906061706 72 333 0.0 3.5 0.00 0.00 0.00 84 1011.5
20260906061204 72 328 0.0 3.5 0.00 0.00 0.00 84 1011.5
20260906060705 72 332 0.0 0.0 0.00 0.00 0.00 84 1011.5
20260906055705 72 321 0.0 6.1 0.00 0.00 0.00 84 1011.5
20260906054705 72 321 0.0 2.6 0.00 0.00 0.00 84 1011.4
20260906054205 72 352 0.0 0.9 0.00 0.00 0.00 84 1011.5
20260906053707 72 354 0.0 0.9 0.00 0.00 0.00 83 1011.5
20260906053205 72 354 0.0 0.9 0.00 0.00 0.00 83 1011.5
20260906052705 72 354 0.0 0.0 0.00 0.00 0.00 83 1011.5
20260906052206 72 354 0.0 0.0 0.00 0.00 0.00 83 1011.4
20260906051205 73 354 0.0 0.0 0.00 0.00 0.00 82 1011.4
20260906050706 73 354 0.0 0.0 0.00 0.00 0.00 81 1011.3
20260906050205 73 353 0.0 0.0 0.00 0.00 0.00 81 1011.3
20260906045705 73 335 0.0 0.9 0.00 0.00 0.00 81 1011.3
20260906045206 73 328 0.0 0.9 0.00 0.00 0.00 80 1011.2
20260906044705 73 302 0.0 1.7 0.00 0.00 0.00 80 1011.3
20260906044205 74 337 0.0 5.2 0.00 0.00 0.00 80 1011.2
20260906043205 74 63 0.0 1.7 0.00 0.00 0.00 79 1011.1
20260906042207 74 266 0.0 4.3 0.00 0.00 0.00 79 1011.1
20260906041705 74 304 0.0 4.3 0.00 0.00 0.00 79 1011.2
20260906040204 74 338 0.0 1.7 0.00 0.00 0.00 79 1011.4
20260906035705 74 338 0.0 1.7 0.00 0.00 0.00 79 1011.5
20260906035206 74 338 0.0 1.7 0.00 0.00 0.00 79 1011.5
20260906034205 75 347 0.0 0.9 0.00 0.00 0.00 78 1011.5
20260906033706 75 345 0.0 3.5 0.00 0.00 0.00 78 1011.3
20260906033205 75 345 0.0 3.5 0.00 0.00 0.00 78 1011.3
20260906032705 75 102 0.0 4.3 0.00 0.00 0.00 77 1011.2
20260906032207 75 71 0.0 4.3 0.00 0.00 0.00 77 1011.2
20260906031705 75 63 0.9 4.3 0.00 0.00 0.00 77 1011.2
20260906031205 76 81 0.0 2.6 0.00 0.00 0.00 77 1011.1
20260906030707 76 90 0.0 8.7 0.00 0.00 0.00 77 1011.0
20260906030205 76 73 0.0 8.7 0.00 0.00 0.00 77 1011.0
20260906025705 76 20 0.9 8.7 0.00 0.00 0.00 76 1011.0
20260906025206 76 20 0.9 4.3 0.00 0.00 0.00 76 1011.0
20260906024705 77 60 0.0 3.5 0.00 0.00 0.00 75 1011.0
20260906024205 77 16 0.0 4.3 0.00 0.00 0.00 75 1011.0
20260906023707 77 75 0.0 4.3 0.00 0.00 0.00 75 1011.0
20260906023205 77 94 0.0 4.3 0.00 0.00 0.00 74 1010.9
20260906022705 78 47 0.0 3.5 0.00 0.00 0.00 74 1010.9
20260906022206 78 72 0.0 3.5 0.00 0.00 0.00 73 1010.9
20260906021205 79 11 0.0 2.6 0.00 0.00 0.00 72 1010.6
20260906020706 79 68 0.0 2.6 0.00 0.00 0.00 72 1010.5
20260906020205 79 89 0.0 4.3 0.00 0.00 0.00 71 1010.4
20260906015705 80 102 0.0 4.3 0.00 0.00 0.00 70 1010.4
20260906015207 80 90 0.0 2.6 0.00 0.00 0.00 69 1010.2
20260906014205 80 320 0.9 4.3 0.00 0.00 0.00 69 1010.1
20260906013707 80 302 0.9 7.0 0.00 0.00 0.00 69 1010.0
20260906013205 81 314 0.9 7.0 0.00 0.00 0.00 69 1009.8
20260906012705 81 321 2.6 7.0 0.00 0.00 0.00 68 1009.8
20260906012207 81 332 1.7 7.0 0.00 0.00 0.00 67 1009.7
20260906011705 82 328 0.9 5.2 0.00 0.00 0.00 66 1009.6
20260906011205 82 284 0.0 4.3 0.00 0.00 0.00 66 1009.6
20260906010205 83 330 1.7 10.4 0.00 0.00 0.00 64 1009.5
20260906005704 83 359 0.9 10.4 0.00 0.00 0.00 64 1009.4
20260906005205 84 321 0.9 10.4 0.00 0.00 0.00 63 1009.4
20260906004704 84 328 0.9 7.0 0.00 0.00 0.00 62 1009.4
20260906003704 86 317 0.0 5.2 0.00 0.00 0.00 60 1009.4
20260906003205 86 325 0.9 5.2 0.00 0.00 0.00 59 1009.3
20260906002706 86 313 0.9 5.2 0.00 0.00 0.00 59 1009.3
20260906002205 86 321 0.0 9.6 0.00 0.00 0.00 59 1009.3
20260906000705 86 307 2.6 7.0 0.00 0.00 0.00 58 1009.2
20260906000205 86 311 1.7 5.2 0.00 0.00 0.00 58 1009.2
20260905235707 87 333 0.9 5.2 0.00 0.00 0.00 58 1009.1
20260905234705 87 330 1.7 7.0 0.00 0.00 0.00 58 1009.1
20260905234207 87 328 1.7 6.1 0.00 0.00 0.00 58 1009.1
20260905233705 87 322 1.7 6.1 0.00 0.00 0.00 58 1009.1
20260905233205 87 310 1.7 7.8 0.00 0.00 0.00 58 1009.0
20260905232706 87 321 3.5 10.4 0.00 0.00 0.00 58 1009.0
20260905232205 87 328 3.5 10.4 0.00 0.00 0.00 58 1009.0
20260905231206 87 338 3.5 10.4 0.00 0.00 0.00 58 1008.8
20260905230705 87 321 4.3 10.4 0.00 0.00 0.00 58 1008.8
20260905230205 87 340 3.5 10.4 0.00 0.00 0.00 57 1008.8
20260905225706 87 328 2.6 7.0 0.00 0.00 0.00 57 1008.8
20260905225205 88 330 1.7 5.2 0.00 0.00 0.00 57 1008.7
20260905224705 88 335 0.9 5.2 0.00 0.00 0.00 56 1008.7
20260905224207 88 305 0.9 6.1 0.00 0.00 0.00 57 1008.7
20260905223705 87 300 1.7 6.1 0.00 0.00 0.00 57 1008.7
20260905223205 87 302 1.7 6.1 0.00 0.00 0.00 57 1008.8
20260905222205 87 330 1.7 6.1 0.00 0.00 0.00 57 1009.0
20260905221705 87 340 1.7 6.1 0.00 0.00 0.00 58 1008.8
20260905221207 86 315 2.6 6.1 0.00 0.00 0.00 59 1009.0
20260905220705 86 327 1.7 4.3 0.00 0.00 0.00 58 1009.0
20260905220205 86 314 0.9 6.1 0.00 0.00 0.00 59 1009.0
20260905215707 86 296 1.7 6.1 0.00 0.00 0.00 59 1009.1
20260905215205 85 337 2.6 6.1 0.00 0.00 0.00 59 1009.1
20260905214705 85 304 1.7 5.2 0.00 0.00 0.00 58 1009.1
20260905213705 85 328 0.9 7.0 0.00 0.00 0.00 60 1009.1
20260905213205 85 291 2.6 7.0 0.00 0.00 0.00 60 1009.1